Flag for U.S.A. Weather past 2 weeks in Oberlin, Ohio, U.S.A.

Now
55 °F

Mostly cloudy.


Feels Like: 52 °F
Forecast: 46 / 60 °F
Wind: 12 mph from Southwest

Location: Lorain County Regional Airport

Current Time: Oct 20, 2014 at 2:40:44 PM

Latest Report: Oct 20, 2014 at 1:53 PM


Visibility: 10 mi

Pressure: 29.85 "Hg

Humidity: 74%

Dew point: 47 °F

Location of OberlinLocation

Historic Weather in Oberlin — Graph

°F

Oberlin temperature yesterday

Maximum temperature yesterday: 52 °F (at 4:53 PM)
Minimum temperature yesterday: 42 °F (at 7:53 AM)
Average temperature yesterday: 46 °F

Past Weeks' High & Low Weather Summary

 TemperatureHumidityPressure
High77 °F (Oct 14, 2:53 PM)100% (Oct 10, 4:53 AM)30.25 "Hg (Oct 10, 4:53 AM)
Low32 °F (Oct 12, 4:53 AM)37% (Oct 12, 2:53 PM)29.55 "Hg (Oct 17, 2:53 PM)
Average53 °F77%29.91 "Hg
* Reported Oct 5 12:53 PM — Oct 20 12:53 PM, Oberlin, Weather by CustomWeather, © 2014

Note: Actual official high and low records may vary slightly from our data, if they occured in-between our weather recording intervals... More about our weather records

Advertising

Oberlin weather history for previous 24 hours

 ConditionsComfort  
Time TempWeatherWind HumidityBarometerVisibility
12:53 PM
Oct 20
54 °FLight rain. Broken clouds.10 mph74%29.87 "Hg10 mi
11:53 AM54 °FPartly sunny.9 mph72%29.89 "Hg10 mi
10:53 AM51 °FLight rain. Partly sunny.9 mph74%29.91 "Hg10 mi
9:53 AM48 °FMostly cloudy.10 mph80%29.93 "Hg10 mi
8:53 AM47 °FPartly sunny.12 mph80%29.95 "Hg10 mi
7:53 AM46 °FPassing clouds.8 mph79%29.95 "Hg10 mi
6:53 AM47 °FOvercast.8 mph77%29.95 "Hg10 mi
5:53 AM47 °FPassing clouds.9 mph74%29.97 "Hg10 mi
4:53 AM47 °FMostly cloudy.9 mph71%29.97 "Hg10 mi
3:53 AM47 °FPassing clouds.7 mph69%30.00 "Hg10 mi
2:53 AM46 °FPassing clouds.3 mph73%30.02 "Hg10 mi
1:53 AM46 °FPassing clouds.5 mph71%30.02 "Hg10 mi
12:53 AM45 °FClear.7 mph71%30.02 "Hg10 mi
10:53 PM
Oct 19
44 °FClear.6 mph73%30.05 "Hg10 mi
9:53 PM44 °FClear.7 mph73%30.06 "Hg10 mi
8:53 PM43 °FClear.3 mph79%30.08 "Hg10 mi
7:53 PM46 °FClear.No wind66%30.09 "Hg10 mi
6:53 PM46 °FSunny.3 mph68%30.10 "Hg10 mi
5:53 PM50 °FSunny.6 mph54%30.11 "Hg10 mi
4:53 PM52 °FSunny.8 mph47%30.11 "Hg10 mi
3:53 PM51 °FSunny.12 mph48%30.14 "Hg10 mi
2:53 PM51 °FSunny.7 mph50%30.15 "Hg10 mi
Weather by CustomWeather, © 2014

See weather overviewHow to use our weather pages